INTELSAT 21 (IS-21) (38749 NORAD) Tracking and Keplerian Element Data

This shows tracking and keplerian element data for the satellite.

Feedback or suggestion? Click here.




ElementValue
Catalog38749
NameINTELSAT 21 (IS-21)
Epoch Orbit4552
Epoch Day34.7435214
Epoch Year2025
RAAN89.5332
Inclination0.0203
Eccentricity0.0001317
Argument of Perigee244.2548
Mean Anonmoly10.0347
Mean Motion1.00274798
Decay Rate-2.8E-06
L11 38749U 12045A 25034.74352140 -.00000280 00000+0 00000+0 0 9992
L22 38749 0.0203 89.5332 0001317 244.2548 10.0347 1.00274798 45528



Live tracking and technical data element details for INTELSAT 21 (IS-21) (NORAD 38749). INTELSAT 21 (IS-21) can be tracked NOW for your location showing map with azimuth and elevation plus other details from your city location.







IsCatalogInMostPopularTable: catalog: 38749, numindb: 678
Update: records affected: 1



GetName: 38749 INTELSAT 21 (IS-21)

Hit Count: updated at: Mon, 17 Nov 2025 06:03:54 GMT